Regional Weather Roundup
Issued by NWS

Home | Current Version | Previous Version | Graphics & Text | Print | Product List | Glossary On
Versions: 1 2 3 4 5 6 7 8 9 10 11 12 13 14 15 16 17 18 19 20 21 22 23 24 25 26 27 28
000
ASUS45 KTFX 170710
RWRMT
MONTANA REGIONAL WEATHER ROUNDUP
NATIONAL WEATHER SERVICE GREAT FALLS MT
1200 AM MST TUE JAN 17 2017

NOTE: "FAIR" INDICATES FEW OR NO CLOUDS BELOW 12000 FEET WITH NO
SIGNIFICANT WEATHER AND/OR OBSTRUCTIONS TO VISIBILITY.

MTZ001>007-043-170800-
WEST OF THE DIVIDE

CITY           SKY/WX    TMP DP  RH WIND       PRES   REMARKS
KALISPELL      FOG       11   9  92 CALM      30.19F VSB<1/4
MISSOULA       PTCLDY     0  -3  87 CALM      30.25S
BUTTE          CLOUDY     1  -5  75 SE5       30.11F
MULLAN PASS    MOCLDY    26  13  57 SW5       30.04R
ANACONDA         N/A     12   5  73 S6        30.12R WCI   3
DEER LODGE       N/A      3  -2  78 CALM      30.15F
EUREKA           N/A     12   9  85 CALM      30.16R
HAMILTON         N/A      3   0  85 S3        30.21S
PLAINS           N/A     -1  -9  69 CALM      30.23F
RONAN            N/A     -2  -9  72 MISG      30.18F VSB 0
$$

MTZ008-052>055-170800-
SOUTHWEST MONTANA

CITY           SKY/WX    TMP DP  RH WIND       PRES   REMARKS
BOZEMAN        CLOUDY    -1  -5  82 SE5       30.12F
DILLON         CLOUDY    18   2  49 S9        30.12S WCI   7
W YELLOWSTONE  CLOUDY   -11 -17  77 CALM      30.20S
ENNIS          CLEAR     19   7  58 S9        30.16S WCI   9
TWIN BRIDGES     N/A      8  -3  61 E6        30.10R WCI  -2
$$

MTZ009-010-012-014-046-048-049-054-170800-
EAST SLOPES AND CENTRAL MONTANA

CITY           SKY/WX    TMP DP  RH WIND       PRES   REMARKS
CUT BANK       PTCLDY    37  19  48 W26       29.80S WCI  25
GREAT FALLS    CLOUDY    33  19  56 S23       29.89F WCI  21
MALMSTROM AFB  CLOUDY    34  22  60 SW29      29.89F WCI  21
HELENA         CLOUDY     3  -2  79 CALM      30.12F
AUGUSTA          N/A     39  19  43 W35G43    29.87F WCI  27
BOWMANS CRNR     N/A     26  13  57 S28       29.90F WCI  10
CHOTEAU          N/A     39  19  45 SW17      29.85F WCI  30
CONRAD           N/A     24  18  78 S6        29.86S WCI  17
FAIRFIELD        N/A     32  17  54 S17G26    29.87F WCI  20
POWER            N/A     32  19  58 S20       29.86F WCI  20
RAYNESFORD       N/A     41  17  38 SW23G30   29.88F
ULM              N/A     33  19  58 MISG      29.92F
$$

MTZ011-013-016-021-045-047-050-051-170800-
NORTH CENTRAL MONTANA

CITY           SKY/WX    TMP DP  RH WIND       PRES   REMARKS
HAVRE          CLOUDY    30  19  63 SW29      29.81F WCI  15
LEWISTOWN      CLOUDY    21  11  65 SE9       29.89F WCI  11
N BAR RANCH      N/A     28  10  47 W10G16    29.92S WCI  19
CHINOOK          N/A     12   7  79 E7        29.85F WCI   2
DENTON           N/A     20  14  77 S12       29.84F WCI   8
FORT BENTON      N/A     36  21  55 MISG      29.87F
GEYSER           N/A     35  20  53 W24G30    29.86F WCI  23
GRASS RANGE      N/A     31  15  51 W6        29.86F WCI  25
JUDITH GAP       N/A     25  14  63 SW18      29.90F WCI  11
ROY              N/A     36  19  49 MISG      29.86F
STANFORD         N/A     33  20  57 CALM      29.87F
WINIFRED         N/A     35  19  51 SW12      29.86F WCI  27
$$

MTZ017>020-022>027-061-062-170800-
NORTHEAST MONTANA

CITY           SKY/WX    TMP DP  RH WIND       PRES   REMARKS
GLASGOW        CLOUDY     7   4  87 SE10      29.90F WCI  -8
JORDAN           N/A      4   0  83 W3        29.92F
SIDNEY         CLOUDY     9   5  84 S6        30.00F WCI  -1
WOLF POINT     CLOUDY    -1  -6  79 CALM      29.96F
PLENTYWOOD       N/A      9   7  92 SE14      29.90F WCI  -8
POPLAR           N/A     12   9  85 SE5       29.96F
SCOBEY           N/A     10  -4  53 S1        29.87F
$$

MTZ028>42-056>058-170800-
SOUTHCENTRAL AND SOUTHEAST MONTANA

CITY           SKY/WX    TMP DP  RH WIND       PRES   REMARKS
BAKER          CLOUDY     5   1  83 E3        30.00F
BILLINGS       CLOUDY    23   7  50 SW26G32   29.98F WCI   6
LIVINGSTON     CLOUDY    32  13  45 W30G40    30.03F WCI  18
MILES CITY     CLOUDY    10   2  69 S10       29.99F WCI  -4
BIG TIMBER     CLEAR     34  14  44 W32G41    29.97F WCI  20
EKALAKA          N/A     28   9  45 S3        29.97F
FORSYTH          N/A      9   5  85 CALM      29.99F
HARLOWTON        N/A     33  13  45 W35G40    29.93F WCI  18
LAUREL           N/A     22   6  50 SW15      29.97F WCI   9
$$

REGIONAL REPORTS...DAKOTAS

CITY           SKY/WX    TMP DP  RH WIND       PRES   REMARKS
WILLISTON      CLOUDY    10   6  84 S3        29.99F
MINOT          CLOUDY    17  12  80 SW15      29.96F WCI   2
DICKINSON      CLOUDY    13   7  77 SW7       29.97F WCI   3
BEACH            N/A     21   9  58 SW14      30.00F WCI   8
CROSBY           N/A     10   9  92 S21       29.94F WCI  -9
TIOGA            N/A     14  12  92 W7        29.98F WCI   4
WATFORD CITY     N/A      7   3  85 S3        29.99F
BISMARCK       CLOUDY     7   2  80 CALM      30.04F
GRAND FORKS    CLOUDY     1  -3  83 SW6       29.99F WCI -10
FARGO          PTCLDY     4   2  91 SE5       30.00F
BUFFALO SD       N/A     16   8  71 W5        29.95F
RAPID CITY     CLOUDY    19  10  68 CALM      30.05F
$$

REGIONAL REPORTS...WYOMING/IDAHO/WASHINGTON

CITY           SKY/WX    TMP DP  RH WIND       PRES   REMARKS
GILLETTE         N/A     14   6  70 S6        30.02F WCI   5
SHERIDAN       CLOUDY     9   1  70 S5        30.00F
BUFFALO WY     CLOUDY    27   4  37 W5        30.00F
CODY           CLOUDY    12   4  70 N3        30.02S
YELLOWSTONE LA   N/A     -7 -11  83 CALM      30.17S
IDAHO FALLS    CLOUDY    -4  -7  87 N8        30.31R WCI -19
SALMON         CLOUDY   -15 -20  76 CALM      30.43S
BOISE          CLEAR      2  -2  83 CALM      30.41F FOG
SPOKANE        MOCLDY    11   8  88 CALM      30.17S FOG
$$

REGIONAL REPORTS...ALBERTA

CITY           SKY/WX    TMP DP  RH WIND       PRES   REMARKS
EDMONTON       MOCLDY    39  25  56 SW12      29.35F WCI  32
CALGARY        MOCLDY    45  27  49 S3        29.57F
LETHBRIDGE     PTCLDY    39  27  60 W23       29.71F WCI  29
MEDICINE HAT   CLEAR     37  25  60 S20G31    29.66F WCI  27
WATERTON GATE    N/A     39  18  41 SW15G30     N/A  WCI  31
CARDSTON         N/A     46  23  39 S10G22      N/A
MILK RIVER       N/A     34  23  64 S10         N/A  WCI  26
$$

REGIONAL REPORTS...SASKATCHEWAN

CITY           SKY/WX    TMP DP  RH WIND       PRES   REMARKS
SWIFT CURRENT  CLEAR     27  19  74 SW25      29.68F WCI  11
REGINA         PTCLDY    19  12  73 S15       29.81F WCI   5
SASKATOON      CLEAR     23  16  74 S16       29.64F WCI  10
CYPRESS HILLS    N/A     25  14  63 SW10        N/A  WCI  15
VAL MARIE        N/A      9   5  85 W5          N/A
ROCKGLEN         N/A     23  14  68 SW20        N/A  WCI   8
$$




USA.gov is the U.S. government's official web portal to all federal, state and local government web resources and services.